Date String (YYYY-MM-DD hh:mm:ss) UTC,Instrument flags,Ambient pressure (hPa),Sample flow (lpm),Bypass flow (lpm),Sample temperature (°C),Ambient temperature (°C),ASC tube jacket temperature (°C),LED temperature (°C),Box temperature (°C),Sample RH (%),Span deviation,Mass concentration (μg/m³),Mass concentration (μg/m³),Mass concentration (μg/m³)
DateTimeUTC,F1_M11,P_M11,Q1_M11,Q2_M11,T1_M11,T2_M11,T3_M11,T4_M11,T5_M11,U1_M11,ZSPAN_M11,X0_M11,X2_M11,X1_M11
2023-05-20 01:00:00,,0838.8,5.00,0.00,27.7,25.9,00.0,36.2,29.3,29.0,0002.7,0140.27,0103.05,0097.57
2023-05-20 01:01:00,,0838.8,5.00,0.00,27.7,25.9,00.0,36.1,29.3,29.0,0002.7,0141.26,0103.26,0097.69
2023-05-20 01:02:00,,0838.8,5.00,0.00,27.7,25.9,00.0,36.1,29.3,29.1,0002.7,0141.52,0103.34,0097.65
2023-05-20 01:03:00,,0838.8,4.99,0.00,27.6,25.9,00.0,36.1,29.3,29.3,0002.7,0141.41,0103.43,0097.70
2023-05-20 01:04:00,,0838.8,5.00,0.00,27.6,25.9,00.0,36.1,29.3,29.2,0002.7,0142.59,0103.72,0097.88
2023-05-20 01:05:00,,0838.8,5.00,0.00,27.6,25.9,00.0,36.1,29.3,29.0,0002.7,0142.84,0103.95,0098.07
2023-05-20 01:06:00,,0838.8,5.01,0.00,27.6,25.9,00.0,36.1,29.3,29.1,0002.7,0142.74,0104.10,0098.18
2023-05-20 01:07:00,,0838.8,5.00,0.00,27.6,25.9,00.0,36.1,29.2,29.3,0002.8,0143.11,0104.22,0098.26
2023-05-20 01:08:00,,0838.8,5.00,0.00,27.6,25.9,00.0,36.1,29.2,29.3,0002.8,0143.11,0104.33,0098.34
2023-05-20 01:09:00,,0838.8,4.99,0.00,27.6,25.9,00.0,36.1,29.2,29.4,0002.9,0143.17,0104.48,0098.45
2023-05-20 01:10:00,,0838.8,5.00,0.00,27.6,25.9,00.0,36.1,29.2,29.4,0002.8,0142.89,0104.61,0098.57
2023-05-20 01:11:00,,0838.8,4.99,0.00,27.6,25.9,00.0,36.1,29.2,29.4,0002.8,0143.02,0104.73,0098.63
2023-05-20 01:12:00,,0838.8,4.99,0.00,27.6,25.9,00.0,36.1,29.2,29.5,0002.8,0142.63,0104.67,0098.59
2023-05-20 01:13:00,,0838.8,4.99,0.00,27.6,25.9,00.0,36.1,29.2,29.6,0002.8,0142.75,0104.70,0098.66
2023-05-20 01:14:00,,0838.8,5.00,0.00,27.6,25.9,00.0,36.1,29.2,29.6,0002.8,0143.17,0104.82,0098.69
2023-05-20 01:15:00,,0838.8,5.00,0.00,27.6,25.9,00.0,36.1,29.2,29.6,0002.8,0142.40,0104.75,0098.65
2023-05-20 01:16:00,,0838.8,5.00,0.00,27.6,25.9,00.0,36.0,29.2,29.5,0002.7,0142.75,0104.73,0098.62
2023-05-20 01:17:00,,0838.8,5.01,0.00,27.6,25.9,00.0,36.0,29.3,29.6,0002.6,0143.19,0104.64,0098.58
2023-05-20 01:18:00,,0838.8,5.01,0.00,27.6,25.9,00.0,36.0,29.3,29.5,0002.6,0143.96,0104.58,0098.60
2023-05-20 01:19:00,,0838.8,5.00,0.00,27.6,25.9,00.0,36.0,29.3,29.4,0002.6,0144.49,0104.58,0098.63
2023-05-20 01:20:00,,0838.8,4.99,0.00,27.6,25.9,00.0,36.0,29.3,29.4,0002.6,0144.67,0104.67,0098.72
2023-05-20 01:21:00,,0838.8,4.98,0.00,27.6,25.9,00.0,36.0,29.3,29.5,0002.5,0144.60,0104.60,0098.68
2023-05-20 01:22:00,,0838.7,4.99,0.00,27.6,25.9,00.0,36.0,29.3,29.5,0002.4,0145.20,0104.75,0098.76
2023-05-20 01:23:00,,0838.8,5.00,0.00,27.6,25.9,00.0,36.0,29.3,29.6,0002.5,0145.80,0104.82,0098.81
2023-05-20 01:24:00,,0838.8,5.00,0.00,27.6,25.9,00.0,36.0,29.3,29.6,0002.4,0146.68,0104.79,0098.79
2023-05-20 01:25:00,,0838.7,5.00,0.00,27.6,25.9,00.0,36.0,29.3,29.5,0002.4,0146.78,0104.81,0098.75
2023-05-20 01:26:00,,0838.7,5.00,0.00,27.6,25.9,00.0,36.0,29.3,29.6,0002.5,0146.73,0104.81,0098.70
2023-05-20 01:27:00,,0838.8,5.00,0.00,27.6,26.0,00.0,36.0,29.3,29.7,0002.6,0146.51,0104.77,0098.67
2023-05-20 01:28:00,,0838.7,5.00,0.00,27.6,26.0,00.0,36.0,29.3,29.7,0002.6,0146.48,0104.63,0098.53
2023-05-20 01:29:00,,0838.7,5.00,0.00,27.6,26.0,00.0,36.0,29.3,29.5,0002.5,0146.09,0104.61,0098.37
2023-05-20 01:30:00,,0838.7,5.00,0.00,27.6,26.0,00.0,36.0,29.3,29.4,0002.5,0144.87,0104.41,0098.16
2023-05-20 01:31:00,,0838.7,5.00,0.00,27.6,26.0,00.0,36.0,29.3,29.4,0002.5,0144.51,0104.20,0097.94
2023-05-20 01:32:00,,0838.7,5.00,0.00,27.6,26.0,00.0,36.0,29.3,29.2,0002.5,0144.64,0104.01,0097.74
2023-05-20 01:33:00,,0838.7,5.00,0.00,27.6,26.0,00.0,36.0,29.3,29.2,0002.6,0144.44,0103.71,0097.52
2023-05-20 01:34:00,,0838.7,5.01,0.00,27.6,26.0,00.0,36.0,29.3,29.4,0002.6,0143.23,0103.38,0097.26
2023-05-20 01:35:00,,0838.6,5.00,0.00,27.6,26.0,00.0,36.0,29.3,29.4,0002.6,0142.64,0103.23,0097.05
2023-05-20 01:36:00,,0838.7,5.00,0.00,27.6,26.0,00.0,36.0,29.3,29.5,0002.6,0142.00,0102.98,0096.86
2023-05-20 01:37:00,,0838.7,5.00,0.00,27.6,26.0,00.0,36.0,29.3,29.4,0002.5,0142.00,0102.73,0096.66
2023-05-20 01:38:00,,0838.7,5.00,0.00,27.6,26.0,00.0,36.0,29.3,29.3,0002.5,0142.27,0102.50,0096.48
2023-05-20 01:39:00,,0838.7,5.00,0.00,27.6,25.9,00.0,36.0,29.3,29.3,0002.5,0142.62,0102.55,0096.47
2023-05-20 01:40:00,,0838.7,5.01,0.00,27.6,25.9,00.0,36.0,29.3,29.3,0002.5,0142.17,0102.55,0096.46
2023-05-20 01:41:00,,0838.7,5.00,0.00,27.6,25.9,00.0,36.0,29.3,29.3,0002.5,0142.36,0102.49,0096.40
2023-05-20 01:42:00,,0838.7,5.00,0.00,27.6,25.9,00.0,36.0,29.3,29.3,0002.5,0142.65,0102.41,0096.32
2023-05-20 01:43:00,,0838.7,4.99,0.00,27.6,25.9,00.0,36.0,29.3,29.4,0002.5,0142.43,0102.33,0096.28
2023-05-20 01:44:00,,0838.7,5.00,0.00,27.6,25.9,00.0,36.0,29.3,29.3,0002.5,0142.03,0102.20,0096.19
2023-05-20 01:45:00,,0838.7,5.01,0.00,27.6,25.9,00.0,36.0,29.3,29.4,0002.4,0142.33,0102.21,0096.10
2023-05-20 01:46:00,,0838.7,5.01,0.00,27.6,25.9,00.0,36.0,29.3,29.5,0002.4,0142.01,0102.23,0096.12
2023-05-20 01:47:00,,0838.7,4.99,0.00,27.6,26.0,00.0,36.0,29.3,29.4,0002.4,0141.64,0102.20,0096.16
2023-05-20 01:48:00,,0838.7,4.99,0.00,27.6,26.0,00.0,36.0,29.3,29.3,0002.5,0141.42,0102.13,0096.15
2023-05-20 01:49:00,,0838.6,5.00,0.00,27.6,26.0,00.0,36.0,29.3,29.3,0002.4,0140.57,0102.06,0096.15
2023-05-20 01:50:00,,0838.6,5.01,0.00,27.6,26.0,00.0,36.0,29.3,29.2,0002.4,0140.39,0101.89,0096.03
2023-05-20 01:51:00,,0838.6,5.00,0.00,27.6,26.0,00.0,36.0,29.3,29.1,0002.5,0140.16,0101.75,0096.00
2023-05-20 01:52:00,,0838.7,5.02,0.00,27.6,26.0,00.0,36.0,29.3,29.1,0002.5,0140.07,0101.65,0096.00
2023-05-20 01:53:00,,0838.7,5.00,0.00,27.6,26.0,00.0,36.0,29.3,29.1,0002.5,0139.63,0101.64,0096.01
2023-05-20 01:54:00,,0838.7,4.99,0.00,27.6,26.0,00.0,36.0,29.3,29.0,0002.5,0140.15,0101.79,0096.02
2023-05-20 01:55:00,,0838.7,5.00,0.00,27.6,26.0,00.0,36.0,29.3,29.0,0002.5,0140.00,0101.87,0096.02
2023-05-20 01:56:00,,0838.7,4.99,0.00,27.6,26.0,00.0,36.0,29.3,29.1,0002.5,0139.84,0101.80,0096.00
2023-05-20 01:57:00,,0838.8,5.00,0.00,27.6,26.0,00.0,36.0,29.3,29.1,0002.5,0139.45,0101.72,0096.01
2023-05-20 01:58:00,,0838.7,5.01,0.00,27.6,26.1,00.0,36.0,29.3,29.1,0002.5,0139.93,0101.65,0095.94
2023-05-20 01:59:00,,0838.8,5.00,0.00,27.7,26.1,00.0,36.0,29.3,29.2,0002.4,0140.08,0101.65,0095.92
